Date,TemperatureHighF,TemperatureAvgF,TemperatureLowF,DewpointHighF,DewpointAvgF,DewpointLowF,HumidityHigh,HumidityAvg,HumidityLow,PressureMaxIn,PressureMinIn,WindSpeedMaxMPH,WindSpeedAvgMPH,GustSpeedMaxMPH,PrecipitationSumIn
2014-1-1,29,25,16,16,13,8,74,60,47,30.43,30.27,7,1,10,0.00
2014-1-2,25,19,8,18,14,3,85,81,69,30.37,29.80,12,5,15,0.00
2014-1-3,16,9,-1,9,1,-9,85,72,54,30.48,29.70,10,3,16,0.00
2014-1-4,26,10,-7,15,3,-12,80,71,57,30.59,30.35,9,1,9,0.02
2014-1-5,43,20,3,41,16,-2,93,84,80,30.41,29.92,5,0,6,0.00
2014-1-6,56,45,30,55,41,21,95,87,66,29.91,29.41,10,3,14,0.47
2014-1-7,30,13,8,22,0,-7,80,55,46,30.33,29.60,10,3,16,0.00
2014-1-8,21,13,5,6,1,-6,74,58,48,30.55,30.33,7,1,9,0.00
2014-1-9,28,17,10,14,9,5,81,72,52,30.71,30.49,5,1,8,0.00
2014-1-10,33,24,11,30,21,6,90,85,80,30.66,30.31,2,0,2,0.01
2014-1-11,58,48,33,56,46,30,95,92,90,30.31,29.39,13,2,15,0.91
2014-1-12,52,42,30,49,33,24,92,71,58,30.08,29.41,9,3,15,0.11
2014-1-13,30,28,26,24,24,22,85,83,80,30.16,30.07,2,0,2,0.00
2014-4-7,53,47,44,44,36,23,90,66,31,30.18,29.87,8,4,12,0.20
2014-4-8,63,53,47,59,46,34,91,79,56,29.86,29.42,10,3,14,0.56
2014-4-9,58,48,36,39,29,16,82,51,24,30.05,29.62,9,3,18,0.00
2014-4-10,57,47,28,34,26,17,69,46,29,30.24,30.05,13,3,16,0.00
2014-4-11,71,58,46,50,43,34,74,57,41,30.11,29.99,7,2,9,0.00
2014-4-12,69,57,44,46,38,31,86,54,25,30.29,30.04,8,2,12,0.02
2014-4-13,66,55,40,52,43,33,79,64,41,30.30,30.09,12,3,15,0.00
2014-4-14,72,63,58,58,54,50,83,72,57,30.12,29.99,16,4,25,0.00
2014-4-15,61,57,37,58,54,34,91,88,81,30.00,29.65,14,4,20,2.26
2014-4-16,45,37,31,34,22,17,88,58,33,30.64,29.86,12,3,17,0.32
2014-4-17,48,39,30,26,24,18,71,55,39,30.80,30.64,10,4,14,0.00
2014-4-18,52,40,28,34,29,22,81,66,46,30.67,30.29,8,2,12,0.00
2014-4-19,64,50,34,40,31,25,86,54,27,30.44,30.24,10,2,13,0.00
2014-4-20,59,46,32,33,26,20,73,48,25,30.55,30.40,10,2,12,0.00
2014-4-21,66,48,29,39,31,22,82,56,19,30.39,29.94,9,2,14,0.00
2014-4-22,70,55,38,48,42,32,83,64,39,29.94,29.55,12,2,14,0.02
2014-4-23,55,49,46,46,41,33,88,73,52,29.73,29.51,12,3,13,0.09
2014-4-24,58,50,40,33,24,18,61,38,25,30.01,29.73,14,4,18,0.00
2014-4-25,64,51,35,31,27,22,62,41,22,30.08,29.90,14,2,14,0.00
2014-4-26,50,46,43,45,40,30,87,79,53,29.93,29.81,5,1,7,0.59
2014-4-27,55,48,42,42,39,35,87,71,56,30.13,29.89,8,2,12,0.01
2014-4-28,63,50,36,41,36,30,81,60,41,30.25,30.05,9,2,12,0.00
2014-4-29,50,45,42,39,36,34,80,70,57,30.54,30.24,14,6,16,0.00
2014-4-30,46,43,40,43,38,34,92,84,77,30.54,30.16,9,4,10,1.24
2014-5-1,70,59,46,62,55,43,93,87,74,30.16,29.74,9,2,14,1.83
2014-5-2,67,58,48,54,44,39,91,62,39,29.88,29.74,8,2,10,0.02
2014-5-3,70,57,39,48,40,35,86,58,33,29.94,29.79,12,2,14,0.00
2014-5-4,65,56,47,46,39,33,83,56,32,29.79,29.61,14,3,19,0.02
2014-5-5,64,56,47,43,40,37,72,57,40,29.92,29.73,9,3,10,0.00
2014-5-6,65,54,40,43,35,31,85,54,30,30.10,29.90,10,2,11,0.00
2014-5-7,68,53,35,38,33,29,82,51,25,30.25,30.10,7,2,8,0.00
2014-5-8,59,52,40,53,44,33,87,76,60,30.25,30.16,3,0,5,0.01
2014-5-9,60,57,54,57,53,51,91,86,80,30.28,30.12,5,1,9,0.00
2014-5-10,82,67,60,65,60,57,92,81,49,30.12,29.85,10,2,13,0.55
2014-5-11,79,67,54,59,47,37,89,54,24,30.12,29.89,9,2,10,0.09
2014-5-12,84,67,46,57,48,40,82,55,26,30.18,30.07,10,2,12,0.00
2014-5-13,68,58,50,55,43,38,82,59,40,30.37,30.10,15,4,18,0.00
2014-5-14,71,60,45,55,45,36,78,61,41,30.39,30.32,8,2,9,0.00
2014-5-15,74,66,59,64,58,49,87,78,67,30.35,30.24,8,2,10,0.01
2014-5-16,68,65,62,63,60,57,90,86,82,30.24,29.99,9,3,13,0.00
2014-5-17,74,65,51,63,54,44,92,71,39,30.15,29.87,9,2,14,1.25
2014-5-18,70,59,45,46,42,36,87,56,34,30.19,30.08,8,1,10,0.00
2014-5-19,69,58,44,42,37,33,74,47,29,30.20,30.08,10,1,10,0.00
2014-5-20,77,62,48,47,42,37,77,51,25,30.11,29.99,7,1,10,0.00
2014-5-21,78,61,45,52,45,40,84,59,29,30.05,29.97,8,1,9,0.00
2014-5-22,62,58,56,56,52,46,88,82,70,30.00,29.90,7,1,7,0.26
2014-5-23,68,59,54,59,54,50,89,83,70,30.00,29.92,5,1,7,0.19
2014-5-24,68,59,51,54,51,48,90,75,57,30.11,29.98,7,1,10,0.02
2014-5-25,74,60,48,60,53,45,90,79,57,30.13,30.07,9,1,10,0.47
2014-5-26,82,64,50,65,55,46,91,73,43,30.11,29.89,6,1,9,0.01
2014-5-27,86,68,53,66,58,50,88,71,43,29.96,29.82,7,1,10,0.31
2014-5-28,56,52,48,50,46,43,89,83,76,30.25,29.94,10,3,17,0.00
2014-5-29,69,54,39,50,44,36,88,69,45,30.27,30.19,8,1,9,0.00
2014-5-30,73,56,42,57,48,38,88,76,53,30.22,30.05,7,1,8,0.16
2014-5-31,68,57,45,54,47,36,91,71,47,30.35,30.09,9,2,14,0.00
2014-6-1,78,60,40,56,44,36,86,60,31,30.39,30.30,6,1,9,0.00
2014-6-2,80,64,45,57,49,40,83,62,36,30.32,30.09,7,1,10,0.00
2014-6-3,83,67,51,65,56,47,85,69,52,30.10,29.94,7,2,12,0.00
2014-6-4,73,65,59,63,57,51,84,75,66,29.95,29.81,5,1,7,0.00
2014-6-5,65,62,59,61,58,56,90,88,83,29.86,29.69,3,0,5,0.67
2014-6-6,74,65,54,60,56,51,91,73,53,29.96,29.77,6,1,7,0.00
2014-6-7,83,68,52,62,56,48,89,67,42,30.02,29.95,5,1,8,0.00
2014-6-8,85,71,55,66,58,51,87,65,42,30.02,29.94,7,1,7,0.00
2014-6-9,73,64,56,63,57,51,87,78,64,30.07,29.99,5,0,6,0.39
2014-6-10,77,68,62,70,64,57,91,86,77,30.13,30.01,14,1,14,0.00
2014-6-11,74,65,60,59,54,49,83,69,54,30.21,30.12,7,2,10,0.00
2014-6-12,70,64,59,64,58,50,85,80,67,30.21,30.07,6,2,9,0.00
2014-6-13,73,68,63,69,64,59,92,89,84,30.07,29.82,5,1,6,0.73
2014-6-14,75,68,56,67,61,48,93,81,63,30.02,29.85,6,1,6,0.00
2014-6-15,78,66,50,60,54,46,89,69,51,30.13,30.00,8,1,8,0.00
2014-6-16,81,66,53,60,53,49,87,65,39,30.21,30.12,5,1,10,0.00
2014-6-17,84,68,57,72,60,51,85,79,67,30.15,29.94,5,1,6,0.00
2014-6-18,84,75,66,72,65,60,90,72,55,30.03,29.83,6,1,9,0.00
2014-6-19,81,70,62,68,64,56,89,80,62,30.06,29.97,6,1,6,0.13
2014-6-20,77,66,53,59,52,47,88,64,40,30.05,29.94,6,1,9,0.00
2014-6-21,76,64,50,56,50,44,83,63,41,30.05,29.94,3,1,6,0.00
2014-6-22,79,66,52,58,53,48,86,66,40,30.10,29.99,5,1,6,0.00
2014-6-23,82,65,51,63,54,47,86,68,48,30.25,30.10,6,1,10,0.00
2014-6-24,82,68,53,64,57,48,86,70,53,30.25,30.10,8,2,10,0.00
2014-6-25,83,73,62,72,66,57,88,79,66,30.10,29.93,7,2,9,0.00
2014-6-26,87,76,65,73,68,60,91,80,60,30.06,29.86,7,1,8,0.11
2014-6-27,80,69,58,62,57,52,89,68,42,30.28,30.06,8,1,9,0.00
2014-6-28,84,68,52,66,56,48,86,68,45,30.35,30.28,7,1,8,0.00
2014-6-29,84,69,53,68,58,49,86,70,53,30.34,30.20,6,1,9,0.00
2014-6-30,85,72,58,67,61,53,87,69,45,30.20,30.02,6,1,10,0.00
2014-7-1,87,77,66,73,68,62,88,73,62,30.03,29.90,7,2,12,0.00
2014-7-2,88,79,70,76,71,65,87,76,65,30.03,29.90,9,2,12,0.01
2014-7-3,89,79,70,76,72,65,89,78,60,30.10,29.97,7,1,10,0.15
2014-7-4,73,67,62,69,64,60,92,90,86,30.06,29.88,3,1,7,1.21
2014-7-5,79,69,59,60,55,52,92,63,40,30.13,29.90,7,2,9,0.01
2014-7-6,84,71,54,63,57,50,86,65,41,30.12,29.97,7,1,9,0.00
2014-7-7,85,76,67,70,66,60,81,70,58,29.99,29.79,9,2,13,0.00
2014-7-8,89,78,68,75,69,63,86,75,56,29.90,29.77,7,2,10,0.02
2014-7-9,86,78,70,71,67,63,84,70,51,30.01,29.76,7,2,9,0.00
2014-7-10,82,74,67,66,64,61,87,71,56,30.21,30.00,5,1,5,0.00
2014-7-11,85,72,63,65,61,56,87,69,47,30.29,30.20,7,1,8,0.00
2014-7-12,86,72,57,68,61,53,87,70,51,30.29,30.20,6,1,8,0.00
2014-7-13,82,73,62,70,64,58,88,76,62,30.22,29.99,8,2,10,0.00
2014-7-14,82,75,71,73,70,67,91,83,72,29.99,29.93,6,1,7,0.60
2014-7-15,80,75,71,75,72,68,93,90,83,29.93,29.81,6,1,9,0.32
2014-7-16,77,72,67,72,69,64,93,88,78,29.93,29.82,3,0,5,0.02
2014-7-17,82,71,62,65,62,59,92,75,51,30.15,29.92,3,1,6,0.00
2014-7-18,82,69,56,65,58,53,89,70,44,30.29,30.15,3,1,5,0.00
2014-7-19,78,66,56,66,59,52,89,78,61,30.33,30.26,5,0,5,0.00
2014-7-20,78,67,57,62,58,53,89,75,55,30.27,30.17,6,1,7,0.00
2014-7-21,82,69,56,65,59,52,89,72,48,30.27,30.19,7,1,8,0.00
2014-7-22,88,74,59,73,64,56,89,73,53,30.23,30.09,5,1,8,0.00
2014-7-23,87,77,67,74,68,62,85,75,64,30.09,29.84,7,2,12,0.04
2014-7-24,81,74,67,69,66,62,91,78,62,29.96,29.82,5,1,6,0.00
2014-7-25,81,70,58,63,59,54,89,70,48,30.07,29.96,6,1,7,0.01
2014-7-26,81,70,58,68,60,54,88,74,52,30.06,29.97,6,1,7,0.00
2014-7-27,80,72,66,71,66,61,91,82,73,29.97,29.74,7,1,10,0.00
2014-7-28,83,74,66,73,67,60,92,79,62,29.74,29.54,7,1,7,0.19
2014-7-29,79,69,60,62,58,55,85,70,52,30.02,29.66,3,1,6,0.01
2014-7-30,80,68,55,63,56,51,88,69,43,30.12,30.01,5,1,7,0.00
2014-7-31,82,69,54,66,58,50,87,70,47,30.23,30.12,12,1,12,0.00
2014-8-1,84,72,62,72,64,58,88,78,62,30.28,30.23,9,1,10,0.00
2014-8-2,69,66,62,66,62,58,91,86,76,30.28,30.17,7,1,10,0.10
2014-8-3,73,67,62,66,62,58,89,85,77,30.20,30.10,3,0,5,0.02
2014-8-4,83,73,65,71,66,61,91,80,63,30.12,30.07,7,1,9,0.00
2014-8-5,89,75,64,73,65,61,91,74,46,30.10,29.97,5,1,8,0.00
2014-8-6,84,73,62,68,62,56,87,71,51,29.97,29.86,5,1,7,0.00
2014-8-7,82,68,56,62,56,52,87,69,46,30.04,29.92,6,1,8,0.00
2014-8-8,82,67,53,61,56,49,88,69,45,30.11,30.03,6,1,8,0.00
2014-8-9,85,71,55,64,58,51,86,66,40,30.16,30.09,8,1,12,0.00
2014-8-10,86,72,58,66,59,53,87,66,41,30.20,30.14,7,1,10,0.00
2014-8-11,85,69,57,70,60,52,88,74,53,30.22,30.17,7,1,10,0.00
2014-8-12,80,70,59,68,62,55,88,76,54,30.19,30.02,9,2,13,0.00
2014-8-13,73,69,64,70,66,61,93,89,82,30.02,29.67,9,2,10,4.40
2014-8-14,76,66,59,61,57,52,93,73,48,29.92,29.76,5,1,8,0.00
2014-8-15,73,64,54,59,54,51,89,74,53,30.02,29.89,5,1,9,0.00
2014-8-16,77,66,51,62,55,47,88,69,44,30.04,29.97,8,1,12,0.00
2014-8-17,79,69,60,66,60,55,88,75,58,29.97,29.84,3,1,5,0.00
2014-8-18,78,66,54,61,55,50,88,71,49,29.94,29.85,5,1,9,0.00
2014-8-19,80,65,51,60,54,47,87,71,47,30.01,29.93,5,1,6,0.00
2014-8-20,82,68,56,67,58,52,89,74,49,30.10,30.01,5,1,7,0.00
2014-8-21,80,69,59,66,60,55,88,75,55,30.14,30.08,6,1,7,0.00
2014-8-22,72,68,64,65,62,59,88,83,74,30.13,30.09,6,1,7,0.01
2014-8-23,74,67,57,61,59,52,87,77,61,30.19,30.12,7,1,8,0.00
2014-8-24,78,66,53,63,56,50,89,73,50,30.20,30.16,7,1,10,0.00
2014-8-25,86,71,56,69,60,52,88,72,47,30.21,30.15,5,1,6,0.00
2014-8-26,86,71,61,72,63,57,90,77,60,30.24,30.13,5,1,9,0.00